| time (UTC) | temp F | wind direction | speed knots | gust knots | rain 1hr in | rain 24hr in | rain mn in | humidity % | barometer mb |
| 20260506190452 | 62 | 113 | 2.6 | 4.3 | 0.00 | 0.38 | 0.38 | 97 | 1005.3 |
| 20260506185948 | 62 | 101 | 0.0 | 1.7 | 0.06 | 0.37 | 0.37 | 98 | 1004.9 |
| 20260506185446 | 62 | 115 | 0.0 | 0.0 | 0.06 | 0.37 | 0.37 | 97 | 1005.3 |
| 20260506184942 | 61 | 66 | 0.0 | 2.6 | 0.06 | 0.37 | 0.37 | 97 | 1005.3 |
| 20260506184439 | 61 | 116 | 0.0 | 0.0 | 0.05 | 0.36 | 0.36 | 97 | 1005.3 |
| 20260506183936 | 61 | 112 | 0.0 | 0.0 | 0.04 | 0.35 | 0.35 | 97 | 1005.3 |
| 20260506183432 | 61 | 307 | 0.9 | 1.7 | 0.03 | 0.34 | 0.34 | 97 | 1005.3 |
| 20260506182929 | 61 | 86 | 0.0 | 0.0 | 0.02 | 0.33 | 0.33 | 97 | 1005.3 |
| 20260506182426 | 61 | 100 | 0.0 | 0.0 | 0.02 | 0.33 | 0.33 | 97 | 1005.3 |
| 20260506181924 | 61 | 126 | 0.0 | 0.0 | 0.02 | 0.33 | 0.33 | 97 | 1005.3 |
| 20260506181422 | 61 | 118 | 0.0 | 0.0 | 0.02 | 0.33 | 0.33 | 97 | 1005.6 |
| 20260506180918 | 61 | 100 | 0.0 | 1.7 | 0.02 | 0.33 | 0.33 | 97 | 1005.6 |
| 20260506180414 | 61 | 90 | 0.0 | 0.0 | 0.01 | 0.32 | 0.32 | 97 | 1005.6 |
| 20260506175911 | 61 | 85 | 0.0 | 0.0 | 0.04 | 0.31 | 0.31 | 97 | 1005.6 |
| 20260506175408 | 61 | 98 | 0.9 | 1.7 | 0.04 | 0.31 | 0.31 | 97 | 1005.6 |
| 20260506174905 | 61 | 92 | 0.0 | 1.7 | 0.04 | 0.31 | 0.31 | 97 | 1005.6 |
| 20260506174403 | 61 | 104 | 0.9 | 1.7 | 0.03 | 0.30 | 0.30 | 97 | 1005.6 |
| 20260506173859 | 61 | 104 | 0.0 | 0.0 | 0.03 | 0.30 | 0.30 | 97 | 1005.6 |
| 20260506173356 | 61 | 77 | 4.3 | 6.1 | 0.02 | 0.29 | 0.29 | 97 | 1005.6 |
| 20260506172853 | 61 | 102 | 0.0 | 0.0 | 0.02 | 0.29 | 0.29 | 97 | 1005.6 |
| 20260506172350 | 61 | 136 | 0.0 | 1.7 | 0.02 | 0.29 | 0.29 | 97 | 1005.3 |
| 20260506171847 | 61 | 106 | 0.0 | 0.0 | 0.01 | 0.28 | 0.28 | 97 | 1005.6 |
| 20260506171344 | 61 | 83 | 0.0 | 1.7 | 0.01 | 0.28 | 0.28 | 97 | 1005.6 |
| 20260506170842 | 60 | 45 | 0.0 | 1.7 | 0.01 | 0.28 | 0.28 | 97 | 1005.6 |
| 20260506170338 | 60 | 117 | 0.0 | 0.0 | 0.00 | 0.27 | 0.27 | 97 | 1005.6 |
| 20260506165837 | 60 | 127 | 2.6 | 2.6 | 0.09 | 0.27 | 0.27 | 97 | 1005.6 |
| 20260506165335 | 60 | 130 | 0.0 | 0.0 | 0.08 | 0.26 | 0.26 | 97 | 1005.9 |
| 20260506164831 | 60 | 107 | 0.0 | 0.0 | 0.08 | 0.26 | 0.26 | 97 | 1005.9 |
| 20260506164328 | 59 | 104 | 0.0 | 0.0 | 0.07 | 0.25 | 0.25 | 97 | 1006.3 |
| 20260506163825 | 59 | 103 | 0.0 | 0.0 | 0.07 | 0.25 | 0.25 | 97 | 1006.3 |
| 20260506163320 | 59 | 102 | 0.0 | 0.0 | 0.06 | 0.24 | 0.24 | 97 | 1005.9 |
| 20260506162815 | 59 | 106 | 0.0 | 0.0 | 0.05 | 0.23 | 0.23 | 97 | 1006.3 |
| 20260506162314 | 58 | 106 | 0.0 | 0.0 | 0.04 | 0.22 | 0.22 | 97 | 1006.3 |
| 20260506161811 | 58 | 105 | 0.0 | 0.0 | 0.03 | 0.21 | 0.21 | 96 | 1006.3 |
| 20260506161308 | 58 | 103 | 0.0 | 0.0 | 0.03 | 0.21 | 0.21 | 96 | 1006.3 |
| 20260506160806 | 58 | 103 | 0.0 | 0.0 | 0.02 | 0.20 | 0.20 | 96 | 1006.3 |
| 20260506160302 | 58 | 100 | 0.0 | 0.0 | 0.01 | 0.19 | 0.19 | 96 | 1006.3 |
| 20260506155801 | 57 | 106 | 0.0 | 0.0 | 0.08 | 0.18 | 0.18 | 96 | 1006.6 |
| 20260506155257 | 57 | 103 | 0.0 | 0.0 | 0.07 | 0.17 | 0.17 | 96 | 1006.6 |
| 20260506153410 | 57 | 110 | 0.0 | 0.0 | 0.04 | 0.14 | 0.14 | 96 | 1006.9 |
| 20260506152907 | 57 | 104 | 0.0 | 0.0 | 0.04 | 0.14 | 0.14 | 96 | 1006.9 |
| 20260506152404 | 57 | 104 | 0.0 | 0.0 | 0.03 | 0.13 | 0.13 | 96 | 1007.3 |
| 20260506151903 | 57 | 104 | 0.0 | 0.0 | 0.03 | 0.13 | 0.13 | 96 | 1007.3 |
| 20260506151359 | 57 | 103 | 0.0 | 0.0 | 0.02 | 0.12 | 0.12 | 95 | 1006.9 |
| 20260506150857 | 57 | 104 | 0.0 | 0.0 | 0.01 | 0.11 | 0.11 | 95 | 1006.9 |
| 20260506150353 | 57 | 104 | 0.0 | 0.0 | 0.01 | 0.11 | 0.11 | 95 | 1006.9 |
| 20260506145849 | 57 | 104 | 0.0 | 0.0 | 0.08 | 0.10 | 0.10 | 95 | 1007.3 |
| 20260506145345 | 57 | 104 | 0.0 | 0.0 | 0.08 | 0.10 | 0.10 | 95 | 1007.3 |
| 20260506144843 | 57 | 103 | 0.0 | 0.0 | 0.07 | 0.09 | 0.09 | 95 | 1007.6 |
| 20260506144340 | 57 | 104 | 0.0 | 0.0 | 0.07 | 0.09 | 0.09 | 95 | 1007.3 |
| 20260506143838 | 57 | 103 | 0.0 | 0.0 | 0.06 | 0.08 | 0.08 | 95 | 1007.6 |
| 20260506143335 | 57 | 103 | 0.0 | 0.0 | 0.05 | 0.07 | 0.07 | 95 | 1007.3 |
| 20260506142833 | 57 | 104 | 0.0 | 0.0 | 0.04 | 0.06 | 0.06 | 95 | 1007.6 |
| 20260506142331 | 56 | 103 | 0.0 | 0.0 | 0.03 | 0.05 | 0.05 | 95 | 1008.0 |
| 20260506141829 | 57 | 103 | 0.0 | 0.0 | 0.02 | 0.04 | 0.04 | 94 | 1008.0 |
| 20260506141327 | 56 | 103 | 0.0 | 0.0 | 0.01 | 0.03 | 0.03 | 94 | 1008.0 |
| 20260506140825 | 57 | 103 | 0.0 | 0.0 | 0.01 | 0.03 | 0.03 | 94 | 1008.0 |
| 20260506140321 | 56 | 98 | 0.0 | 0.0 | 0.00 | 0.02 | 0.02 | 94 | 1007.6 |
| 20260506135818 | 56 | 103 | 0.0 | 0.0 | 0.02 | 0.02 | 0.02 | 94 | 1007.6 |
| 20260506135314 | 56 | 105 | 0.0 | 0.0 | 0.01 | 0.01 | 0.01 | 94 | 1008.0 |
| 20260506134811 | 56 | 106 | 0.0 | 0.0 | 0.01 | 0.01 | 0.01 | 94 | 1007.6 |
| 20260506134308 | 56 | 106 | 0.0 | 0.0 | 0.01 | 0.01 | 0.01 | 94 | 1007.6 |
| 20260506133804 | 56 | 106 | 0.0 | 0.0 | 0.01 | 0.01 | 0.01 | 94 | 1007.6 |
| 20260506133301 | 56 | 106 | 0.0 | 0.0 | 0.01 | 0.01 | 0.01 | 94 | 1007.3 |
| 20260506132758 | 56 | 106 | 0.0 | 0.0 | 0.01 | 0.01 | 0.01 | 94 | 1007.6 |
| 20260506132255 | 56 | 105 | 0.0 | 0.0 | 0.01 | 0.01 | 0.01 | 94 | 1007.3 |
| 20260506131754 | 56 | 111 | 0.0 | 0.0 | 0.01 | 0.01 | 0.01 | 94 | 1007.3 |
| 20260506131249 | 56 | 98 | 0.0 | 0.0 | 0.01 | 0.01 | 0.01 | 94 | 1007.6 |
| 20260506130746 | 56 | 100 | 0.0 | 0.0 | 0.00 | 0.00 | 0.00 | 94 | 1007.3 |
| 20260506130243 | 56 | 103 | 0.0 | 0.0 | 0.00 | 0.00 | 0.00 | 94 | 1007.6 |
| 20260506125741 | 56 | 110 | 0.0 | 0.0 | 0.00 | 0.00 | 0.00 | 94 | 1008.0 |
| 20260506125239 | 56 | 100 | 0.0 | 0.0 | 0.00 | 0.00 | 0.00 | 94 | 1007.3 |
| 20260506124737 | 56 | 104 | 0.0 | 0.0 | 0.00 | 0.00 | 0.00 | 94 | 1007.3 |
| 20260506124234 | 56 | 103 | 0.0 | 0.0 | 0.00 | 0.00 | 0.00 | 94 | 1007.6 |
| 20260506123731 | 55 | 104 | 0.0 | 0.0 | 0.00 | 0.00 | 0.00 | 94 | 1007.6 |
| 20260506123230 | 55 | 104 | 0.0 | 0.0 | 0.00 | 0.00 | 0.00 | 93 | 1008.0 |
| 20260506122726 | 55 | 93 | 0.0 | 0.0 | 0.00 | 0.00 | 0.00 | 94 | 1008.0 |
| 20260506122224 | 55 | 104 | 0.0 | 0.0 | 0.00 | 0.00 | 0.00 | 94 | 1008.0 |
| 20260506121722 | 55 | 100 | 0.0 | 0.0 | 0.00 | 0.00 | 0.00 | 94 | 1008.6 |
| 20260506121218 | 55 | 98 | 0.0 | 0.0 | 0.00 | 0.00 | 0.00 | 94 | 1008.6 |
| 20260506120716 | 55 | 98 | 0.0 | 0.0 | 0.00 | 0.00 | 0.00 | 94 | 1008.3 |
| 20260506120213 | 55 | 112 | 0.0 | 0.0 | 0.00 | 0.00 | 0.00 | 94 | 1008.3 |
| 20260506115711 | 55 | 106 | 0.0 | 0.0 | 0.00 | 0.00 | 0.00 | 94 | 1008.3 |
| 20260506115209 | 55 | 95 | 0.0 | 0.0 | 0.00 | 0.00 | 0.00 | 94 | 1008.3 |
| 20260506114706 | 55 | 113 | 0.0 | 0.0 | 0.00 | 0.00 | 0.00 | 94 | 1008.6 |
| 20260506114204 | 55 | 103 | 0.0 | 0.0 | 0.00 | 0.00 | 0.00 | 94 | 1008.3 |
| 20260506113703 | 55 | 119 | 0.0 | 0.0 | 0.00 | 0.00 | 0.00 | 94 | 1008.0 |
| 20260506113200 | 55 | 101 | 0.0 | 0.0 | 0.00 | 0.00 | 0.00 | 94 | 1008.0 |
| 20260506112655 | 55 | 108 | 0.0 | 0.0 | 0.00 | 0.00 | 0.00 | 94 | 1008.0 |
| 20260506112153 | 55 | 102 | 0.0 | 0.0 | 0.00 | 0.00 | 0.00 | 94 | 1008.0 |
| 20260506111651 | 55 | 103 | 0.0 | 0.0 | 0.00 | 0.00 | 0.00 | 95 | 1008.0 |
| 20260506111148 | 55 | 137 | 0.9 | 1.7 | 0.00 | 0.00 | 0.00 | 95 | 1008.0 |
| 20260506110646 | 55 | 113 | 0.0 | 0.0 | 0.00 | 0.00 | 0.00 | 95 | 1007.3 |
| 20260506110143 | 55 | 100 | 0.0 | 0.0 | 0.00 | 0.00 | 0.00 | 95 | 1007.6 |
| 20260506105639 | 55 | 104 | 0.0 | 0.0 | 0.00 | 0.00 | 0.00 | 95 | 1007.6 |
| 20260506105136 | 55 | 110 | 0.0 | 0.0 | 0.00 | 0.00 | 0.00 | 95 | 1008.0 |
| 20260506104634 | 55 | 77 | 0.0 | 1.7 | 0.00 | 0.00 | 0.00 | 95 | 1007.6 |
| 20260506104132 | 54 | 98 | 0.0 | 0.0 | 0.00 | 0.00 | 0.00 | 95 | 1007.3 |
| 20260506103629 | 54 | 79 | 0.0 | 1.7 | 0.00 | 0.00 | 0.00 | 95 | 1007.6 |
| 20260506103125 | 54 | 103 | 0.0 | 0.0 | 0.00 | 0.00 | 0.00 | 95 | 1008.0 |
| 20260506102624 | 54 | 103 | 0.0 | 0.0 | 0.00 | 0.00 | 0.00 | 95 | 1007.6 |
| 20260506102121 | 54 | 105 | 0.0 | 0.0 | 0.00 | 0.00 | 0.00 | 95 | 1007.3 |
| 20260506101617 | 54 | 105 | 0.0 | 0.0 | 0.00 | 0.00 | 0.00 | 95 | 1007.3 |
| 20260506101114 | 54 | 98 | 0.0 | 0.0 | 0.00 | 0.00 | 0.00 | 94 | 1007.6 |
| 20260506100613 | 54 | 94 | 0.0 | 0.0 | 0.00 | 0.00 | 0.00 | 95 | 1007.6 |
| 20260506100110 | 54 | 104 | 0.0 | 0.0 | 0.00 | 0.00 | 0.00 | 94 | 1007.3 |
| 20260506095609 | 54 | 106 | 0.0 | 0.0 | 0.00 | 0.00 | 0.00 | 94 | 1007.3 |
| 20260506095105 | 54 | 107 | 0.0 | 0.0 | 0.00 | 0.00 | 0.00 | 94 | 1007.3 |
| 20260506094603 | 54 | 104 | 0.0 | 0.0 | 0.00 | 0.00 | 0.00 | 94 | 1007.3 |
| 20260506094100 | 54 | 104 | 0.0 | 0.0 | 0.00 | 0.00 | 0.00 | 94 | 1007.3 |
| 20260506093559 | 54 | 104 | 0.0 | 0.0 | 0.00 | 0.00 | 0.00 | 94 | 1007.6 |
| 20260506093055 | 54 | 104 | 0.0 | 0.0 | 0.00 | 0.00 | 0.00 | 94 | 1007.3 |
| 20260506092554 | 54 | 105 | 0.0 | 0.0 | 0.00 | 0.00 | 0.00 | 94 | 1007.3 |
| 20260506092050 | 54 | 104 | 0.0 | 0.0 | 0.00 | 0.00 | 0.00 | 94 | 1007.3 |
| 20260506091548 | 54 | 102 | 0.0 | 0.0 | 0.00 | 0.00 | 0.00 | 94 | 1007.3 |
| 20260506091045 | 54 | 102 | 0.0 | 0.0 | 0.00 | 0.00 | 0.00 | 94 | 1007.3 |
| 20260506090543 | 54 | 104 | 0.0 | 0.0 | 0.00 | 0.00 | 0.00 | 94 | 1007.6 |
| 20260506090039 | 54 | 104 | 0.0 | 0.0 | 0.00 | 0.00 | 0.00 | 94 | 1007.6 |
| 20260506085536 | 54 | 104 | 0.0 | 0.0 | 0.00 | 0.00 | 0.00 | 94 | 1007.3 |
| 20260506085032 | 54 | 104 | 0.0 | 0.0 | 0.00 | 0.00 | 0.00 | 94 | 1007.6 |
| 20260506084530 | 54 | 104 | 0.0 | 0.0 | 0.00 | 0.00 | 0.00 | 94 | 1007.6 |
| 20260506084025 | 55 | 104 | 0.0 | 0.0 | 0.00 | 0.00 | 0.00 | 94 | 1007.6 |
| 20260506083523 | 54 | 104 | 0.0 | 0.0 | 0.00 | 0.00 | 0.00 | 94 | 1007.6 |
| 20260506083020 | 54 | 104 | 0.0 | 0.0 | 0.00 | 0.00 | 0.00 | 93 | 1007.6 |
| 20260506082517 | 55 | 104 | 0.0 | 0.0 | 0.00 | 0.00 | 0.00 | 93 | 1008.0 |
| 20260506082013 | 55 | 104 | 0.0 | 0.0 | 0.00 | 0.00 | 0.00 | 93 | 1008.0 |
| 20260506081511 | 55 | 104 | 0.0 | 0.0 | 0.00 | 0.00 | 0.00 | 93 | 1008.0 |
| 20260506081008 | 55 | 104 | 0.0 | 0.0 | 0.00 | 0.00 | 0.00 | 93 | 1007.6 |
| 20260506080506 | 55 | 104 | 0.0 | 0.0 | 0.00 | 0.00 | 0.00 | 93 | 1008.0 |
| 20260506073449 | 55 | 104 | 0.0 | 0.0 | 0.00 | 0.00 | 0.00 | 93 | 1008.3 |
| 20260506072946 | 55 | 104 | 0.0 | 0.0 | 0.00 | 0.00 | 0.00 | 93 | 1008.6 |
| 20260506072443 | 55 | 104 | 0.0 | 0.0 | 0.00 | 0.00 | 0.00 | 93 | 1008.6 |
| 20260506071941 | 56 | 104 | 0.0 | 0.0 | 0.00 | 0.00 | 0.00 | 93 | 1008.6 |
| 20260506071439 | 56 | 104 | 0.0 | 0.0 | 0.00 | 0.00 | 0.00 | 93 | 1008.3 |
| 20260506070935 | 56 | 104 | 0.0 | 0.0 | 0.00 | 0.00 | 0.00 | 93 | 1008.6 |
| 20260506070432 | 56 | 104 | 0.0 | 0.0 | 0.00 | 0.00 | 0.00 | 93 | 1008.6 |
| 20260506062410 | 56 | 102 | 0.0 | 0.0 | 0.00 | 0.00 | 0.00 | 92 | 1009.0 |
| 20260506061906 | 56 | 102 | 0.0 | 0.0 | 0.00 | 0.00 | 0.00 | 92 | 1009.0 |
| 20260506061403 | 56 | 102 | 0.0 | 0.0 | 0.00 | 0.00 | 0.00 | 92 | 1009.0 |
| 20260506060901 | 56 | 100 | 0.0 | 0.0 | 0.00 | 0.00 | 0.00 | 92 | 1009.0 |
| 20260506060358 | 56 | 100 | 0.0 | 0.0 | 0.00 | 0.00 | 0.00 | 92 | 1009.0 |
| 20260506051330 | 57 | 114 | 0.0 | 0.0 | 0.00 | 0.00 | 0.00 | 92 | 1009.0 |
| 20260506050828 | 57 | 117 | 0.0 | 0.0 | 0.00 | 0.00 | 0.00 | 92 | 1009.0 |
| 20260506050325 | 57 | 110 | 0.0 | 0.0 | 0.00 | 0.00 | 0.00 | 91 | 1009.0 |
| 20260506044815 | 58 | 110 | 0.0 | 0.0 | 0.00 | 0.00 | 0.00 | 91 | 1009.3 |
| 20260506044314 | 58 | 107 | 0.0 | 0.0 | 0.00 | 0.00 | 0.00 | 91 | 1009.3 |
| 20260506043810 | 58 | 104 | 0.0 | 0.0 | 0.00 | 0.00 | 0.00 | 90 | 1009.0 |
| 20260506043308 | 58 | 111 | 0.0 | 0.0 | 0.00 | 0.00 | 0.00 | 90 | 1009.0 |
| 20260506042806 | 58 | 104 | 0.0 | 0.0 | 0.00 | 0.00 | 0.00 | 90 | 1009.0 |
| 20260506042305 | 58 | 101 | 0.0 | 0.0 | 0.00 | 0.00 | 0.00 | 90 | 1009.3 |
| 20260506041803 | 58 | 131 | 0.0 | 0.0 | 0.00 | 0.00 | 0.00 | 90 | 1009.0 |
| 20260506041259 | 58 | 123 | 0.0 | 0.0 | 0.00 | 0.00 | 0.00 | 91 | 1009.0 |
| 20260506040757 | 58 | 115 | 0.0 | 0.0 | 0.00 | 0.00 | 0.00 | 91 | 1009.0 |
| 20260506040254 | 58 | 112 | 0.0 | 0.0 | 0.00 | 0.00 | 0.00 | 91 | 1009.0 |
| 20260506035750 | 58 | 105 | 0.0 | 0.0 | 0.00 | 0.09 | 0.09 | 92 | 1009.0 |
| 20260506035247 | 58 | 109 | 0.0 | 0.0 | 0.00 | 0.09 | 0.09 | 92 | 1009.0 |
| 20260506034744 | 58 | 100 | 1.7 | 2.6 | 0.00 | 0.09 | 0.09 | 93 | 1009.0 |
| 20260506034242 | 59 | 110 | 0.0 | 0.0 | 0.00 | 0.09 | 0.09 | 93 | 1008.6 |
| 20260506033738 | 60 | 26 | 2.6 | 4.3 | 0.00 | 0.09 | 0.09 | 94 | 1008.6 |
| 20260506033236 | 61 | 162 | 1.7 | 2.6 | 0.00 | 0.09 | 0.09 | 94 | 1008.3 |
| 20260506032732 | 61 | 114 | 0.9 | 1.7 | 0.00 | 0.09 | 0.09 | 94 | 1008.3 |
| 20260506032229 | 62 | 102 | 0.0 | 0.0 | 0.00 | 0.09 | 0.09 | 94 | 1008.3 |
| 20260506031726 | 62 | 115 | 0.0 | 0.0 | 0.00 | 0.09 | 0.09 | 94 | 1008.3 |
| 20260506031223 | 62 | 104 | 0.0 | 0.0 | 0.00 | 0.09 | 0.09 | 94 | 1008.0 |
| 20260506030722 | 62 | 116 | 0.0 | 0.0 | 0.00 | 0.09 | 0.09 | 94 | 1008.3 |
| 20260506030219 | 62 | 94 | 0.0 | 0.0 | 0.00 | 0.09 | 0.09 | 94 | 1008.0 |
| 20260506025715 | 62 | 82 | 0.0 | 1.7 | 0.06 | 0.09 | 0.09 | 93 | 1008.3 |
| 20260506025212 | 63 | 99 | 0.0 | 0.0 | 0.05 | 0.08 | 0.08 | 93 | 1008.6 |
| 20260506024709 | 63 | 116 | 0.0 | 0.0 | 0.01 | 0.04 | 0.04 | 93 | 1009.0 |
| 20260506024205 | 63 | 111 | 0.0 | 0.0 | 0.00 | 0.03 | 0.03 | 93 | 1008.0 |
| 20260506023702 | 63 | 112 | 0.0 | 0.0 | 0.00 | 0.03 | 0.03 | 93 | 1008.0 |
| 20260506023159 | 63 | 103 | 0.0 | 0.0 | 0.00 | 0.03 | 0.03 | 92 | 1008.0 |
| 20260506022656 | 63 | 105 | 0.0 | 0.0 | 0.00 | 0.03 | 0.03 | 92 | 1008.0 |
| 20260506022153 | 63 | 106 | 0.0 | 0.0 | 0.00 | 0.03 | 0.03 | 92 | 1008.0 |
| 20260506021651 | 63 | 106 | 0.0 | 0.0 | 0.00 | 0.03 | 0.03 | 92 | 1008.0 |
| 20260506021148 | 63 | 106 | 0.0 | 0.0 | 0.00 | 0.03 | 0.03 | 92 | 1008.0 |
| 20260506020645 | 63 | 98 | 0.0 | 0.0 | 0.00 | 0.03 | 0.03 | 91 | 1008.0 |
| 20260506020143 | 63 | 95 | 0.0 | 0.0 | 0.00 | 0.03 | 0.03 | 91 | 1008.0 |
| 20260506015640 | 63 | 103 | 0.0 | 0.0 | 0.01 | 0.03 | 0.03 | 91 | 1007.6 |
| 20260506015137 | 63 | 106 | 0.0 | 0.0 | 0.01 | 0.03 | 0.03 | 91 | 1007.6 |
| 20260506014635 | 63 | 104 | 0.0 | 0.0 | 0.01 | 0.03 | 0.03 | 90 | 1007.6 |
| 20260506014130 | 63 | 104 | 0.0 | 0.0 | 0.01 | 0.03 | 0.03 | 90 | 1007.6 |
| 20260506013629 | 64 | 101 | 0.0 | 0.0 | 0.01 | 0.03 | 0.03 | 90 | 1008.0 |
| 20260506013125 | 64 | 106 | 0.0 | 0.0 | 0.01 | 0.03 | 0.03 | 89 | 1007.6 |
| 20260506012621 | 64 | 106 | 0.0 | 0.0 | 0.00 | 0.02 | 0.02 | 89 | 1007.6 |
| 20260506012118 | 64 | 107 | 0.0 | 0.0 | 0.00 | 0.02 | 0.02 | 89 | 1007.6 |
| 20260506011616 | 64 | 106 | 0.0 | 0.0 | 0.00 | 0.02 | 0.02 | 89 | 1007.6 |
| 20260506011112 | 64 | 106 | 0.0 | 0.0 | 0.00 | 0.02 | 0.02 | 89 | 1007.6 |
| 20260506010606 | 64 | 105 | 0.0 | 0.0 | 0.00 | 0.02 | 0.02 | 89 | 1007.3 |
| 20260506005559 | 64 | 105 | 0.0 | 0.0 | 0.00 | 0.02 | 0.02 | 89 | 1007.6 |
| 20260506005055 | 64 | 115 | 0.0 | 0.0 | 0.00 | 0.02 | 0.02 | 89 | 1007.3 |
| 20260506004552 | 64 | 98 | 0.0 | 0.0 | 0.00 | 0.02 | 0.02 | 89 | 1007.6 |
| 20260506004049 | 64 | 116 | 0.0 | 0.0 | 0.00 | 0.02 | 0.02 | 89 | 1007.3 |
| 20260506003545 | 64 | 105 | 0.0 | 0.0 | 0.00 | 0.02 | 0.02 | 89 | 1007.3 |
| 20260506003042 | 64 | 105 | 0.0 | 0.0 | 0.00 | 0.02 | 0.02 | 89 | 1007.3 |
| 20260506002537 | 64 | 105 | 0.0 | 0.0 | 0.00 | 0.02 | 0.02 | 89 | 1007.3 |
| 20260506002034 | 64 | 103 | 0.0 | 0.0 | 0.00 | 0.02 | 0.02 | 88 | 1006.9 |
| 20260506001530 | 64 | 105 | 0.0 | 0.0 | 0.00 | 0.02 | 0.02 | 88 | 1006.6 |
| 20260506001027 | 65 | 104 | 0.0 | 0.0 | 0.00 | 0.02 | 0.02 | 88 | 1006.6 |
| 20260506000525 | 65 | 98 | 0.0 | 0.0 | 0.00 | 0.02 | 0.02 | 88 | 1006.6 |
| 20260506000022 | 65 | 98 | 0.0 | 0.0 | 0.00 | 0.02 | 0.02 | 88 | 1006.6 |
| 20260505235520 | 65 | 106 | 0.0 | 0.0 | 0.00 | 0.02 | 0.02 | 87 | 1006.6 |
| 20260505235016 | 65 | 106 | 0.0 | 0.0 | 0.00 | 0.02 | 0.02 | 87 | 1006.3 |
| 20260505234514 | 65 | 108 | 0.0 | 0.0 | 0.00 | 0.02 | 0.02 | 86 | 1006.3 |
| 20260505234010 | 65 | 108 | 0.0 | 0.0 | 0.00 | 0.02 | 0.02 | 86 | 1006.6 |
| 20260505233508 | 65 | 109 | 0.0 | 0.0 | 0.00 | 0.02 | 0.02 | 86 | 1006.3 |
| 20260505233005 | 65 | 106 | 0.0 | 0.0 | 0.00 | 0.02 | 0.02 | 87 | 1006.3 |
| 20260505232503 | 65 | 106 | 0.0 | 0.0 | 0.00 | 0.02 | 0.02 | 87 | 1006.3 |
| 20260505232000 | 65 | 105 | 0.0 | 0.0 | 0.00 | 0.02 | 0.02 | 86 | 1005.9 |
| 20260505231457 | 65 | 105 | 0.0 | 0.0 | 0.00 | 0.02 | 0.02 | 86 | 1005.9 |
| 20260505230955 | 65 | 105 | 0.0 | 0.0 | 0.00 | 0.02 | 0.02 | 86 | 1005.9 |
| 20260505230453 | 65 | 112 | 0.0 | 0.0 | 0.00 | 0.02 | 0.02 | 86 | 1006.3 |
| 20260505225949 | 65 | 106 | 0.0 | 0.0 | 0.00 | 0.02 | 0.02 | 85 | 1005.9 |
| 20260505225446 | 65 | 106 | 0.0 | 0.0 | 0.00 | 0.02 | 0.02 | 85 | 1006.3 |
| 20260505224942 | 65 | 106 | 0.0 | 0.0 | 0.00 | 0.02 | 0.02 | 84 | 1006.3 |
| 20260505224439 | 65 | 106 | 0.0 | 0.0 | 0.00 | 0.02 | 0.02 | 82 | 1006.3 |
| 20260505223936 | 66 | 106 | 0.0 | 0.0 | 0.00 | 0.02 | 0.02 | 81 | 1006.3 |
| 20260505223433 | 66 | 112 | 0.0 | 0.0 | 0.00 | 0.02 | 0.02 | 79 | 1005.9 |
| 20260505222929 | 66 | 116 | 0.0 | 0.0 | 0.00 | 0.02 | 0.02 | 79 | 1005.9 |
| 20260505222426 | 66 | 113 | 0.0 | 1.7 | 0.00 | 0.02 | 0.02 | 80 | 1006.3 |
| 20260505221922 | 66 | 105 | 0.0 | 0.0 | 0.00 | 0.02 | 0.02 | 80 | 1006.3 |
| 20260505221419 | 66 | 74 | 6.1 | 8.7 | 0.00 | 0.02 | 0.02 | 79 | 1006.3 |
| 20260505220916 | 66 | 172 | 2.6 | 2.6 | 0.00 | 0.02 | 0.02 | 79 | 1006.3 |
| 20260505220413 | 66 | 121 | 2.6 | 4.3 | 0.00 | 0.02 | 0.02 | 79 | 1006.3 |
| 20260505215911 | 67 | 105 | 0.0 | 0.0 | 0.02 | 0.02 | 0.02 | 77 | 1006.3 |
| 20260505215409 | 68 | 52 | 0.9 | 2.6 | 0.02 | 0.02 | 0.02 | 75 | 1006.3 |
| 20260505214907 | 69 | 98 | 0.0 | 0.0 | 0.02 | 0.02 | 0.02 | 73 | 1006.3 |
| 20260505214404 | 71 | 191 | 2.6 | 2.6 | 0.01 | 0.01 | 0.01 | 65 | 1005.9 |
| 20260505213901 | 72 | 225 | 2.6 | 2.6 | 0.00 | 0.00 | 0.00 | 60 | 1006.3 |
| 20260505213359 | 73 | 78 | 1.7 | 2.6 | 0.00 | 0.00 | 0.00 | 57 | 1006.3 |
| 20260505212854 | 74 | 103 | 5.2 | 7.8 | 0.00 | 0.00 | 0.00 | 55 | 1005.3 |
| 20260505212352 | 76 | 119 | 0.0 | 1.7 | 0.00 | 0.00 | 0.00 | 53 | 1004.9 |
| 20260505211848 | 79 | 81 | 4.3 | 6.1 | 0.00 | 0.00 | 0.00 | 45 | 1004.9 |
| 20260505211346 | 80 | 119 | 0.0 | 0.0 | 0.00 | 0.00 | 0.00 | 32 | 1004.2 |
| 20260505210842 | 80 | 119 | 0.0 | 0.0 | 0.00 | 0.00 | 0.00 | 31 | 1004.2 |
| 20260505210339 | 81 | 104 | 0.0 | 0.0 | 0.00 | 0.00 | 0.00 | 29 | 1003.6 |
| 20260505205835 | 81 | 119 | 0.0 | 0.0 | 0.00 | 0.00 | 0.00 | 29 | 1003.6 |
| 20260505205334 | 81 | 108 | 0.0 | 0.0 | 0.00 | 0.00 | 0.00 | 29 | 1003.6 |
| 20260505204830 | 82 | 132 | 0.0 | 0.0 | 0.00 | 0.00 | 0.00 | 29 | 1003.2 |
| 20260505204328 | 82 | 106 | 2.6 | 4.3 | 0.00 | 0.00 | 0.00 | 29 | 1003.6 |
| 20260505203826 | 82 | 123 | 0.9 | 1.7 | 0.00 | 0.00 | 0.00 | 29 | 1003.2 |
| 20260505203322 | 82 | 103 | 0.0 | 0.0 | 0.00 | 0.00 | 0.00 | 30 | 1003.2 |
| 20260505202818 | 82 | 279 | 2.6 | 4.3 | 0.00 | 0.00 | 0.00 | 30 | 1003.2 |
| 20260505202314 | 82 | 153 | 1.7 | 2.6 | 0.00 | 0.00 | 0.00 | 29 | 1003.2 |
| 20260505201811 | 82 | 154 | 0.9 | 1.7 | 0.00 | 0.00 | 0.00 | 30 | 1003.2 |
| 20260505201309 | 83 | 74 | 0.0 | 1.7 | 0.00 | 0.00 | 0.00 | 30 | 1003.2 |
| 20260505200807 | 83 | 123 | 0.9 | 1.7 | 0.00 | 0.00 | 0.00 | 31 | 1003.2 |
| 20260505200304 | 83 | 171 | 2.6 | 4.3 | 0.00 | 0.00 | 0.00 | 32 | 1003.2 |
| 20260505195759 | 83 | 74 | 1.7 | 4.3 | 0.00 | 0.00 | 0.00 | 32 | 1003.6 |
| 20260505195257 | 84 | 133 | 0.9 | 1.7 | 0.00 | 0.00 | 0.00 | 33 | 1003.6 |
| 20260505194753 | 84 | 169 | 0.0 | 0.0 | 0.00 | 0.00 | 0.00 | 32 | 1003.2 |
| 20260505194250 | 84 | 214 | 3.5 | 4.3 | 0.00 | 0.00 | 0.00 | 34 | 1003.2 |
| 20260505193746 | 84 | 203 | 3.5 | 4.3 | 0.00 | 0.00 | 0.00 | 34 | 1003.6 |
| 20260505193244 | 85 | 208 | 5.2 | 12.2 | 0.00 | 0.00 | 0.00 | 32 | 1003.6 |
| 20260505192742 | 86 | 111 | 0.9 | 1.7 | 0.00 | 0.00 | 0.00 | 39 | 1003.6 |
| 20260505192239 | 85 | 112 | 0.9 | 1.7 | 0.00 | 0.00 | 0.00 | 39 | 1003.6 |
| 20260505191737 | 84 | 148 | 0.0 | 1.7 | 0.00 | 0.00 | 0.00 | 39 | 1003.6 |
| 20260505191235 | 83 | 42 | 0.9 | 2.6 | 0.00 | 0.00 | 0.00 | 40 | 1003.6 |
| 20260505190731 | 83 | 113 | 2.6 | 4.3 | 0.00 | 0.00 | 0.00 | 42 | 1003.6 |